Location: Unspecified
(52.4292°N, 19.3359°E)
Time: 00:35:00
(UTC+02:00)

SR - Pass Details

Date: 28 May 2024
Orbit: 580 x 858 km, 66.7° (Epoch: 12 June)

Event Time Altitude Azimuth Distance (km) Brightness Sun altitude
Rises 01:04:49 0° 321° (NW) 2,899 ? -15.9°
Reaches altitude 10° 01:07:08 10° 323° (NW) 1,961 ? -15.8°
Maximum altitude 01:11:30 76° 49° (NE) 612 ? -15.7°
Enters shadow 01:15:10 14° 135° (SE) 1,672 ? -15.7°
Drops below altitude 10° 01:15:43 10° 136° (SE) 1,894 - -15.7°
Sets 01:17:56 0° 138° (SE) 2,791 - -15.6°
